GSAT0204 (GALILEO 8) (40545 NORAD) Tracking and Keplerian Element Data

This shows tracking and keplerian element data for the satellite.

Feedback or suggestion? Click here.




ElementValue
Catalog40545
NameGSAT0204 (GALILEO 8)
Epoch Orbit4669
Epoch Day269.76412336
Epoch Year2022
RAAN18.6198
Inclination56.8325
Eccentricity0.0003772
Argument of Perigee207.9295
Mean Anonmoly152.0624
Mean Motion1.70475717
Decay Rate-7.6E-07
L11 40545U 15017B 22269.76412336 -.00000076 00000+0 00000+0 0 9997
L22 40545 56.8325 18.6198 0003772 207.9295 152.0624 1.70475717 46699

Live tracking and technical data element details for GSAT0204 (GALILEO 8) (NORAD 40545). GSAT0204 (GALILEO 8) can be tracked NOW for your location showing map with azimuth and elevation plus other details from your city location.

Track the satellite on the map from your city or location and see movement details for azimuth, elevation, latitude, longitude, range, height, and movement on the map or in text.







IsCatalogInMostPopularTable: catalog: 40545, numindb: 602
Update: records affected: 1



GetName: 40545 GSAT0204 (GALILEO 8)

Hit Count: updated at: Fri, 30 Sep 2022 04:28:30 GMT